Change the Weather History Date:

Saturday, May 18, 2013

  Actual Average Record
Temperature  
Mean Temperature 100 °F -  
Max Temperature 111 °F - - ()
Min Temperature 89 °F - - ()
Cooling Degree Days 35    
Growing Degree Days 50 (Base 50)    
Moisture  
Dew Point 47 °F    
Average Humidity 17    
Maximum Humidity 31    
Minimum Humidity 5    
Precipitation  
Precipitation 0.00 in - - ()
Sea Level Pressure  
Sea Level Pressure 29.61 in    
Wind  
Wind Speed 8 mph ()    
Max Wind Speed 16 mph    
Max Gust Speed -    
Visibility 2.4 miles    
Events      
T = Trace of Precipitation, MM = Missing Value Source: Averaged Metar Reports

Daily Weather History Graph

Daily Weather History Graph

Search for Another Location

Airport or City:

Trip Planner

Search our weather history database for the weather conditions in past years. The results will help you decide how hot, cold, wet, or windy it might be!

Date:

Astronomy

May. 18, 2013 Rise Set
Actual Time 5:37 AM IST 7:08 PM IST
Civil Twilight 5:12 AM IST 7:34 PM IST
Nautical Twilight 4:42 AM IST 8:04 PM IST
Astronomical Twilight 4:10 AM IST 8:36 PM IST
Moon 12:23 PM IST (5/18) 12:34 AM IST (5/18)
Length of Visible Light 14h 21m
Length of Day
13h 31m
Waxing Crescent, 51% of the Moon is Illuminated
May 18
Waxing Crescent
May 25
Full
Jun 1
Last Quarter
Jun 8
New
Jun 16
First Quarter

Hourly Weather History & Observations

Time (IST) Temp. Heat Index Dew Point Humidity Pressure Visibility Wind Dir Wind Speed Gust Speed Precip Events Conditions
12:00 AM 93.2 °F - 44.6 °F 19% 29.65 in 2.5 mi West 9.2 mph - N/A   Haze
2:00 AM 89.6 °F - 42.8 °F 20% 29.62 in 2.5 mi WNW 5.8 mph - N/A   Haze
2:30 AM 91.4 °F - 42.8 °F 18% 29.59 in 2.5 mi WNW 6.9 mph - N/A   Haze
3:00 AM 93.2 °F - 46.4 °F 20% 29.59 in 2.5 mi WNW 9.2 mph - N/A   Haze
4:00 AM 93.2 °F - 51.8 °F 24% 29.59 in 2.5 mi WNW 9.2 mph - N/A   Haze
5:00 AM 93.2 °F 90.8 °F 53.6 °F 26% 29.59 in 2.5 mi WNW 12.7 mph - N/A   Haze
5:30 AM 92 °F - 56 °F 20% 29.52 in 1 mi WNW 11.5 mph - -   Haze
6:00 AM 89.6 °F 87.7 °F 55.4 °F 31% 29.62 in 2.5 mi NW 4.6 mph - N/A   Haze
7:00 AM 91.4 °F 89.9 °F 57.2 °F 31% 29.65 in 2.5 mi NW 6.9 mph - N/A   Haze
8:00 AM 95.0 °F 94.4 °F 59.0 °F 30% 29.68 in 2.5 mi WNW 12.7 mph - N/A   Haze
8:30 AM 96 °F - 66 °F 28% 29.58 in 2 mi WNW 13.8 mph - -   Haze
9:00 AM 98.6 °F 98.5 °F 59.0 °F 27% 29.68 in 2.5 mi WNW 16.1 mph - N/A   Haze
10:00 AM 100.4 °F 98.8 °F 55.4 °F 22% 29.71 in 2.5 mi WNW 16.1 mph - N/A   Haze
11:00 AM 104.0 °F - 51.8 °F 17% 29.68 in 2.5 mi WNW 12.7 mph - N/A   Haze
12:00 PM 105.8 °F - 50.0 °F 15% 29.68 in 2.5 mi NW 9.2 mph - N/A   Haze
1:00 PM 109.4 °F - 41.0 °F 10% 29.65 in 2.5 mi WNW 13.8 mph - N/A   Haze
2:30 PM 110 °F - 42 °F 5% 29.52 in 2 mi WNW 9.2 mph - -   Haze
3:00 PM 111.2 °F - 39.2 °F 9% 29.62 in 3.1 mi WNW 10.4 mph - N/A   Haze
4:00 PM 111.2 °F - 35.6 °F 8% 29.59 in 3.1 mi WNW 12.7 mph - N/A   Haze
5:00 PM 109.4 °F - 41.0 °F 10% 29.59 in 3.1 mi WNW 13.8 mph - N/A   Haze
6:00 PM 109.4 °F - 33.8 °F 7% 29.59 in 3.1 mi WNW 10.4 mph - N/A   Haze
7:00 PM 105.8 °F - 37.4 °F 10% 29.62 in 2.5 mi WNW 4.6 mph - N/A   Haze
7:30 PM 102.2 °F - 39.2 °F 11% 29.62 in 2.5 mi WNW 5.8 mph - N/A   Haze
8:00 PM 100.4 °F - 41.0 °F 13% 29.62 in 2.5 mi Calm Calm - N/A   Haze
8:30 PM 101 °F - 43 °F 7% 29.52 in 2 mi Calm Calm - -   Haze
9:00 PM 100.4 °F - 42.8 °F 14% 29.62 in 2.5 mi Calm Calm - N/A   Haze
10:00 PM 98.6 °F - 42.8 °F 15% 29.65 in 2.2 mi Variable 3.5 mph - N/A   Haze
11:00 PM 96.8 °F - 37.4 °F 13% 29.65 in 2.2 mi West 8.1 mph - N/A   Haze
11:30 PM 98 °F - 47 °F 10% 29.54 in 1 mi WNW 6.9 mph - -   Haze